Phuket, Thailand

1:42 PM +07 on May 24, 2017 (GMT +0700)
Phuket International

Weather History for VTSP - April, 2013

Change the Weather History Date:

Friday, April 26, 2013

  Actual Average Record
Temperature  
Mean Temperature 80 °F -  
Max Temperature 87 °F 89 °F 96 °F (2002)
Min Temperature 74 °F 78 °F 68 °F (2014)
Cooling Degree Days 16    
Growing Degree Days 30 (Base 50)    
Moisture  
Dew Point 76 °F    
Average Humidity 78    
Maximum Humidity 94    
Minimum Humidity 62    
Precipitation  
Precipitation 0.02 in 0.42 in - ()
Sea Level Pressure  
Sea Level Pressure 29.85 in    
Wind  
Wind Speed 3 mph ()    
Max Wind Speed 12 mph    
Max Gust Speed -    
Visibility 5.8 miles    
Events Rain , Thunderstorm    
Averages and records for this station are not official NWS values.
T = Trace of Precipitation, MM = Missing Value Source: Averaged Metar Reports

Daily Weather History Graph

Daily Weather History Graph

Search for Another Location

Airport or City:

Trip Planner

Search our weather history database for the weather conditions in past years. The results will help you decide how hot, cold, wet, or windy it might be!

Date:

Astronomy

Apr. 26, 2013 Rise Set
Actual Time 6:13 AM +07 6:35 PM +07
Civil Twilight 5:51 AM +07 6:57 PM +07
Nautical Twilight 5:26 AM +07 7:22 PM +07
Astronomical Twilight 5:01 AM +07 7:47 PM +07
Moon 7:11 PM +07 (4/26) 6:21 AM +07 (4/26)
Length of Visible Light 13h 05m
Length of Day
12h 22m
Full, 100% of the Moon is Illuminated
Apr 26
Full
May 2
Last Quarter
May 10
New
May 18
First Quarter
May 25
Full

Hourly Weather History & Observations

Time (+07) Temp. Heat Index Dew Point Humidity Pressure Visibility Wind Dir Wind Speed Gust Speed Precip Events Conditions
12:00 AM 80.6 °F 87.1 °F 77.0 °F 89% 29.89 in 5.0 mi Calm Calm - N/A Thunderstorm Thunderstorm
12:30 AM 80.6 °F 87.1 °F 77.0 °F 89% 29.89 in 4.3 mi Variable 1.2 mph - N/A   Mostly Cloudy
1:00 AM 81 °F - 77 °F 84% 29.83 in 5 mi ENE 3.5 mph - - Rain , Thunderstorm Thunderstorms and Rain
1:00 AM 78.8 °F - 77.0 °F 94% 29.86 in 4.3 mi Variable 1.2 mph - N/A Rain Rain
1:30 AM 78.8 °F - 75.2 °F 89% 29.86 in 5.0 mi Variable 1.2 mph - N/A   Mostly Cloudy
2:00 AM 78.8 °F - 75.2 °F 89% 29.83 in 5.0 mi Calm Calm - N/A   Mostly Cloudy
2:30 AM 77.0 °F - 75.2 °F 94% 29.83 in 5.0 mi Calm Calm - N/A   Mostly Cloudy
3:00 AM 77.0 °F - 75.2 °F 94% 29.83 in 5.0 mi Variable 2.3 mph - N/A   Mostly Cloudy
3:30 AM 77.0 °F - 75.2 °F 94% 29.80 in 5.0 mi Calm Calm - N/A   Mostly Cloudy
4:00 AM 77.0 °F - 75.2 °F 94% 29.80 in 5.0 mi Calm Calm - N/A   Mostly Cloudy
4:30 AM 77.0 °F - 73.4 °F 89% 29.80 in 5.0 mi Calm Calm - N/A   Mostly Cloudy
5:00 AM 77.0 °F - 75.2 °F 94% 29.80 in 5.0 mi Calm Calm - N/A   Mostly Cloudy
5:30 AM 77.0 °F - 75.2 °F 94% 29.83 in 5.0 mi Calm Calm - N/A   Mostly Cloudy
6:00 AM 77.0 °F - 75.2 °F 94% 29.83 in 5.0 mi East 4.6 mph - N/A   Mostly Cloudy
6:30 AM 78.8 °F - 75.2 °F 89% 29.86 in 5.0 mi Calm Calm - N/A   Mostly Cloudy
7:00 AM 80 °F - 78 °F 90% 29.80 in 6 mi Calm Calm - -   Scattered Clouds
7:00 AM 80.6 °F 87.1 °F 77.0 °F 89% 29.86 in 5.6 mi Variable 2.3 mph - N/A   Mostly Cloudy
7:30 AM 80.6 °F 87.1 °F 77.0 °F 89% 29.86 in 5.6 mi Variable 2.3 mph - N/A   Mostly Cloudy
8:00 AM 82.4 °F 90.9 °F 77.0 °F 84% 29.89 in 6.2 mi East 5.8 mph - N/A   Mostly Cloudy
8:30 AM 86.0 °F 96.9 °F 77.0 °F 74% 29.92 in 6.2 mi Calm Calm - N/A   Mostly Cloudy
9:00 AM 86.0 °F 95.1 °F 75.2 °F 70% 29.92 in 6.2 mi ENE 4.6 mph - N/A   Mostly Cloudy
9:30 AM 87.8 °F 99.7 °F 77.0 °F 70% 29.92 in 6.2 mi ESE 4.6 mph - N/A   Mostly Cloudy
10:00 AM 87.8 °F 97.6 °F 75.2 °F 66% 29.92 in 6.2 mi Calm Calm - N/A   Mostly Cloudy
10:30 AM 82.4 °F 89.5 °F 75.2 °F 79% 29.92 in 5.0 mi South 5.8 mph - N/A Rain Light Rain
11:00 AM 80.6 °F 86.2 °F 75.2 °F 84% 29.92 in 6.2 mi South 6.9 mph - N/A   Mostly Cloudy
11:30 AM 84.2 °F 92.3 °F 75.2 °F 74% 29.92 in 6.2 mi SSW 6.9 mph - N/A   Mostly Cloudy
12:00 PM 87.8 °F 97.6 °F 75.2 °F 66% 29.89 in 6.2 mi WSW 11.5 mph - N/A   Mostly Cloudy
12:30 PM 87.8 °F 97.6 °F 75.2 °F 66% 29.89 in 6.2 mi West 11.5 mph - N/A   Mostly Cloudy
1:00 PM 88 °F - 78 °F 66% 29.84 in 6 mi West 3.5 mph - -   Scattered Clouds
1:00 PM 86.0 °F 96.9 °F 77.0 °F 74% 29.86 in 6.2 mi West 11.5 mph - N/A   Mostly Cloudy
1:30 PM 87.8 °F 99.7 °F 77.0 °F 70% 29.86 in 6.2 mi WSW 9.2 mph - N/A   Mostly Cloudy
2:00 PM 87.8 °F 99.7 °F 77.0 °F 70% 29.83 in 6.2 mi WSW 9.2 mph - N/A   Mostly Cloudy
2:30 PM 87.8 °F 99.7 °F 77.0 °F 70% 29.83 in 6.2 mi West 11.5 mph - N/A   Mostly Cloudy
3:00 PM 87.8 °F 99.7 °F 77.0 °F 70% 29.80 in 6.2 mi WSW 9.2 mph - N/A   Mostly Cloudy
3:30 PM 86.0 °F 95.1 °F 75.2 °F 70% 29.80 in 6.2 mi WSW 8.1 mph - N/A   Mostly Cloudy
4:00 PM 87.8 °F 99.7 °F 77.0 °F 70% 29.77 in 6.2 mi West 10.4 mph - N/A   Mostly Cloudy
4:30 PM 87.8 °F 95.6 °F 73.4 °F 62% 29.77 in 6.2 mi WNW 8.1 mph - N/A   Mostly Cloudy
5:00 PM 87.8 °F 99.7 °F 77.0 °F 70% 29.77 in 6.2 mi West 9.2 mph - N/A   Mostly Cloudy
5:30 PM 87.8 °F 95.6 °F 73.4 °F 62% 29.80 in 6.2 mi WNW 9.2 mph - N/A   Mostly Cloudy
6:00 PM 86.0 °F 93.4 °F 73.4 °F 66% 29.80 in 6.2 mi West 11.5 mph - N/A   Mostly Cloudy
6:30 PM 86.0 °F 93.4 °F 73.4 °F 66% 29.80 in 6.2 mi WNW 6.9 mph - N/A   Mostly Cloudy
7:00 PM 87 °F - 77 °F 65% 29.78 in 6 mi Calm Calm - -   Scattered Clouds
7:00 PM 84.2 °F 90.9 °F 73.4 °F 70% 29.83 in 6.2 mi WNW 10.4 mph - N/A   Mostly Cloudy
7:30 PM 84.2 °F 90.9 °F 73.4 °F 70% 29.83 in 6.2 mi WNW 5.8 mph - N/A   Mostly Cloudy
8:00 PM 86.0 °F 93.4 °F 73.4 °F 66% 29.83 in 6.2 mi West 9.2 mph - N/A   Mostly Cloudy
8:30 PM 84.2 °F 92.3 °F 75.2 °F 74% 29.86 in 6.2 mi WNW 3.5 mph - N/A   Mostly Cloudy
9:00 PM 84.2 °F 92.3 °F 75.2 °F 74% 29.86 in 6.2 mi NNW 5.8 mph - N/A   Mostly Cloudy
9:30 PM 84.2 °F 92.3 °F 75.2 °F 74% 29.89 in 6.2 mi NNW 3.5 mph - N/A   Mostly Cloudy
10:00 PM 82.4 °F 88.2 °F 73.4 °F 74% 29.89 in 6.2 mi NNW 3.5 mph - N/A   Mostly Cloudy
10:30 PM 80.6 °F 85.4 °F 73.4 °F 79% 29.89 in 6.2 mi Calm Calm - N/A   Mostly Cloudy
11:00 PM 80.6 °F 85.4 °F 73.4 °F 79% 29.89 in 6.2 mi Calm Calm - N/A   Mostly Cloudy
11:30 PM 78.8 °F - 75.2 °F 89% 29.89 in 6.2 mi Calm Calm - N/A   Mostly Cloudy